ON7SD-5 Weather Reports


time (UTC)temp
F
wind
direction
speed
knots
gust
knots
rain 1hr
in
rain 24hr
in
rain mn
in
humidity
%
barometer
mb
20260510064156 57 75 2.6 7.0 0.00 0.00 0.00 74 1013.6
20260510063656 56 78 2.6 9.6 0.00 0.00 0.00 76 1013.7
20260510063156 56 83 2.6 8.7 0.00 0.00 0.00 77 1013.7
20260510062656 56 80 2.6 7.0 0.00 0.00 0.00 78 1013.8
20260510062156 55 83 2.6 8.7 0.00 0.00 0.00 77 1013.7
20260510061656 55 79 0.9 6.1 0.00 0.00 0.00 78 1013.8
20260510061157 55 80 0.9 3.5 0.00 0.00 0.00 80 1013.8
20260510060656 54 80 1.7 9.6 0.00 0.00 0.00 80 1013.8
20260510060157 54 79 1.7 6.1 0.00 0.00 0.00 80 1013.8
20260510055656 54 82 0.9 7.0 0.00 0.00 0.00 81 1013.8
20260510055156 53 77 0.9 7.0 0.00 0.00 0.00 82 1013.8
20260510054657 53 75 0.9 5.2 0.00 0.00 0.00 82 1013.8
20260510054156 53 75 1.7 7.0 0.00 0.00 0.00 83 1013.7
20260510053657 53 71 1.7 7.0 0.00 0.00 0.00 83 1013.8
20260510053157 52 70 1.7 6.1 0.00 0.00 0.00 83 1013.8
20260510052657 52 71 0.9 6.1 0.00 0.00 0.00 84 1013.8
20260510052157 52 72 0.9 7.0 0.00 0.00 0.00 84 1013.8
20260510051657 52 69 0.9 6.1 0.00 0.00 0.00 85 1013.8
20260510051157 52 68 0.0 4.3 0.00 0.00 0.00 85 1013.9
20260510050657 52 68 0.9 4.3 0.00 0.00 0.00 86 1013.9
20260510050157 52 68 0.9 8.7 0.00 0.00 0.00 86 1013.8
20260510045657 52 55 0.9 0.0 0.00 0.00 0.00 86 1013.8
20260510045157 52 54 0.9 5.2 0.00 0.00 0.00 86 1013.8
20260510044657 52 54 0.9 7.0 0.00 0.00 0.00 86 1013.8
20260510044157 52 53 0.0 4.3 0.00 0.00 0.00 86 1013.8
20260510043657 52 53 0.0 2.6 0.00 0.00 0.00 87 1013.8
20260510043157 52 53 0.9 1.7 0.00 0.00 0.00 86 1013.7
20260510042657 52 53 0.9 7.0 0.00 0.00 0.00 87 1013.7
20260510042157 52 50 0.0 3.5 0.00 0.00 0.00 86 1013.7
20260510041657 52 49 0.0 4.3 0.00 0.00 0.00 86 1013.6
20260510041157 52 49 0.9 3.5 0.00 0.00 0.00 86 1013.6
20260510040657 52 49 0.9 5.2 0.00 0.00 0.00 86 1013.6
20260510040157 52 49 0.9 4.3 0.00 0.00 0.00 86 1013.6
20260510035657 52 49 0.9 4.3 0.00 0.00 0.00 86 1013.6
20260510035157 52 49 0.0 0.0 0.00 0.00 0.00 86 1013.6
20260510034657 52 49 0.0 3.5 0.00 0.00 0.00 85 1013.6
20260510034157 52 49 0.0 2.6 0.00 0.00 0.00 85 1013.6
20260510033657 52 49 0.0 1.7 0.00 0.00 0.00 85 1013.6
20260510033157 52 49 0.0 1.7 0.00 0.00 0.00 84 1013.7
20260510032657 52 49 0.0 0.0 0.00 0.00 0.00 84 1013.7
20260510032157 52 49 0.0 2.6 0.00 0.00 0.00 84 1013.8
20260510031657 52 49 0.0 0.0 0.00 0.00 0.00 83 1013.8
20260510031157 52 49 0.9 0.0 0.00 0.00 0.00 83 1013.7
20260510030657 52 49 0.9 4.3 0.00 0.00 0.00 83 1013.8
20260510030157 53 49 0.9 4.3 0.00 0.00 0.00 83 1013.8
20260510025657 53 49 0.0 3.5 0.00 0.00 0.00 82 1013.7
20260510025157 53 49 0.0 1.7 0.00 0.00 0.00 82 1013.8
20260510024657 53 49 0.0 0.0 0.00 0.00 0.00 82 1013.8
20260510024157 53 49 0.0 0.0 0.00 0.00 0.00 82 1013.9
20260510023657 53 49 0.0 2.6 0.00 0.00 0.00 81 1013.9
20260510023157 53 49 0.0 0.0 0.00 0.00 0.00 81 1013.9
20260510022657 53 49 0.0 2.6 0.00 0.00 0.00 81 1013.9
20260510022157 53 49 0.9 2.6 0.00 0.00 0.00 81 1013.9
20260510021657 53 49 0.9 4.3 0.00 0.00 0.00 81 1013.9
20260510021157 53 48 0.0 4.3 0.00 0.00 0.00 81 1013.9
20260510020657 53 48 0.0 2.6 0.00 0.00 0.00 81 1014.0
20260510020157 53 48 0.0 2.6 0.00 0.00 0.00 80 1014.0
20260510015657 53 48 0.0 2.6 0.00 0.00 0.00 81 1013.9
20260510015157 53 48 0.0 2.6 0.00 0.00 0.00 80 1014.0
20260510014657 53 48 0.0 2.6 0.00 0.00 0.00 80 1014.0
20260510014157 53 47 0.0 4.3 0.00 0.00 0.00 80 1014.0
20260510013657 53 47 0.0 2.6 0.00 0.00 0.00 79 1014.1
20260510013157 53 47 0.0 1.7 0.00 0.00 0.00 79 1014.1
20260510012657 53 47 0.0 0.0 0.00 0.00 0.00 78 1014.2
20260510012157 53 47 0.0 2.6 0.00 0.00 0.00 78 1014.3
20260510011657 53 47 0.0 3.5 0.00 0.00 0.00 78 1014.2
20260510011157 53 47 0.0 5.2 0.00 0.00 0.00 78 1014.3
20260510010657 53 47 0.0 1.7 0.00 0.00 0.00 77 1014.3
20260510010157 53 47 0.0 2.6 0.00 0.00 0.00 77 1014.4
20260510005657 53 47 0.0 2.6 0.00 0.00 0.00 77 1014.4
20260510005157 53 47 0.0 2.6 0.00 0.00 0.00 77 1014.4
20260510004657 53 47 0.0 3.5 0.00 0.00 0.00 77 1014.3
20260510004157 53 47 0.0 2.6 0.00 0.00 0.00 76 1014.4
20260510003657 54 47 0.9 2.6 0.00 0.00 0.00 76 1014.4
20260510003157 54 47 0.0 3.5 0.00 0.00 0.00 75 1014.4
20260510002657 54 47 0.0 0.0 0.00 0.00 0.00 75 1014.4
20260510002157 54 47 0.0 0.0 0.00 0.00 0.00 75 1014.4
20260510001657 54 47 0.0 0.9 0.00 0.00 0.00 74 1014.5
20260510001157 54 47 0.0 3.5 0.00 0.00 0.00 74 1014.6
20260510000657 54 47 0.0 0.9 0.00 0.00 0.00 74 1014.7
20260510000157 54 47 0.0 2.6 0.00 0.00 0.00 73 1014.8
20260509235657 54 47 0.0 0.9 0.00 0.00 0.00 73 1014.9
20260509235157 54 47 0.9 0.9 0.00 0.00 0.00 72 1014.8
20260509234657 54 47 0.9 3.5 0.00 0.00 0.00 72 1014.9
20260509234157 54 47 0.0 4.3 0.00 0.00 0.00 72 1014.8
20260509233657 55 47 0.0 3.5 0.00 0.00 0.00 72 1014.8
20260509233157 55 47 0.9 0.9 0.00 0.00 0.00 71 1014.8
20260509232657 55 47 0.9 3.5 0.00 0.00 0.00 71 1014.8
20260509232157 55 47 0.9 4.3 0.00 0.00 0.00 70 1014.8
20260509231657 55 47 0.9 4.3 0.00 0.00 0.00 70 1014.9
20260509231157 55 46 0.9 5.2 0.00 0.00 0.00 69 1014.9
20260509230657 55 46 0.9 4.3 0.00 0.00 0.00 68 1014.9
20260509230157 55 45 0.9 4.3 0.00 0.00 0.00 67 1015.0
20260509225657 56 45 0.9 4.3 0.00 0.00 0.00 67 1015.0
20260509225157 56 44 0.9 2.6 0.00 0.00 0.00 66 1015.0
20260509224657 56 44 0.9 5.2 0.00 0.00 0.00 66 1015.0
20260509224157 56 45 0.9 5.2 0.00 0.00 0.00 65 1014.9
20260509223657 56 44 0.9 4.3 0.00 0.00 0.00 64 1014.9
20260509223157 56 44 0.9 4.3 0.00 0.00 0.00 64 1014.9
20260509222657 56 43 0.9 1.7 0.00 0.00 0.00 64 1015.0
20260509222157 57 43 0.9 4.3 0.00 0.00 0.00 63 1014.9
20260509221657 57 42 0.9 6.1 0.00 0.00 0.00 63 1014.9
20260509221157 57 44 0.9 4.3 0.00 0.00 0.00 63 1014.9
20260509220657 57 44 0.9 4.3 0.00 0.00 0.00 63 1014.8
20260509220157 57 44 0.9 4.3 0.00 0.00 0.00 63 1014.8
20260509215657 57 44 0.9 5.2 0.00 0.00 0.00 63 1014.8
20260509215157 57 44 0.9 3.5 0.00 0.00 0.00 63 1014.8
20260509214657 57 44 0.9 5.2 0.00 0.00 0.00 63 1014.8
20260509214157 57 43 0.0 3.5 0.00 0.00 0.00 64 1014.8
20260509213657 58 43 0.0 2.6 0.00 0.00 0.00 64 1014.8
20260509213157 58 42 0.0 4.3 0.00 0.00 0.00 64 1014.9
20260509212657 58 43 0.9 3.5 0.00 0.00 0.00 64 1015.0
20260509212157 58 41 0.9 3.5 0.00 0.00 0.00 63 1015.0
20260509211657 58 41 0.0 2.6 0.00 0.00 0.00 63 1014.9
20260509211157 58 41 0.9 2.6 0.00 0.00 0.00 63 1014.8
20260509210657 59 41 1.7 4.3 0.00 0.00 0.00 63 1014.8
20260509210157 59 37 1.7 7.0 0.00 0.00 0.00 63 1014.7
20260509205657 59 64 0.9 4.3 0.00 0.00 0.00 63 1014.7
20260509205157 59 65 0.9 4.3 0.00 0.00 0.00 63 1014.6
20260509204657 59 75 0.9 4.3 0.00 0.00 0.00 63 1014.6
20260509204157 59 75 0.9 6.1 0.00 0.00 0.00 62 1014.6
20260509203658 59 75 0.9 4.3 0.00 0.00 0.00 62 1014.6
20260509203157 60 76 0.9 4.3 0.00 0.00 0.00 62 1014.6
20260509202657 60 76 0.9 3.5 0.00 0.00 0.00 62 1014.6
20260509202157 60 76 0.9 4.3 0.00 0.00 0.00 62 1014.6
20260509201657 60 77 1.7 3.5 0.00 0.00 0.00 61 1014.6
20260509201157 60 77 1.7 5.2 0.00 0.00 0.00 61 1014.7
20260509200657 61 77 1.7 6.1 0.00 0.00 0.00 60 1014.7
20260509200157 61 77 1.7 6.1 0.00 0.00 0.00 60 1014.6
20260509195657 61 86 0.9 7.8 0.00 0.00 0.00 60 1014.5
20260509195157 61 70 0.9 5.2 0.00 0.00 0.00 60 1014.5
20260509194657 61 68 0.9 7.8 0.00 0.00 0.00 60 1014.6
20260509194157 62 64 0.9 5.2 0.00 0.00 0.00 59 1014.5
20260509193657 62 46 0.9 6.1 0.00 0.00 0.00 59 1014.4
20260509193157 62 75 0.9 5.2 0.00 0.00 0.00 58 1014.4
20260509192657 62 71 0.9 4.3 0.00 0.00 0.00 58 1014.4
20260509192157 63 72 0.9 6.1 0.00 0.00 0.00 58 1014.2
20260509191657 63 77 1.7 4.3 0.00 0.00 0.00 57 1014.2
20260509191157 64 77 1.7 7.8 0.00 0.00 0.00 57 1014.2
20260509190657 64 1 0.9 7.0 0.00 0.00 0.00 56 1014.2
20260509190157 64 28 0.9 7.0 0.00 0.00 0.00 56 1014.1
20260509185657 65 63 1.7 6.1 0.00 0.00 0.00 56 1014.2
20260509185157 65 65 1.7 7.8 0.00 0.00 0.00 55 1014.2
20260509184657 65 65 0.9 4.3 0.00 0.00 0.00 54 1014.3
20260509184157 66 46 0.9 6.1 0.00 0.00 0.00 53 1014.3
20260509183657 66 72 1.7 7.8 0.00 0.00 0.00 52 1014.3
20260509183157 67 59 1.7 5.2 0.00 0.00 0.00 51 1014.3
20260509182657 67 76 1.7 6.1 0.00 0.00 0.00 50 1014.2
20260509182158 68 72 1.7 7.8 0.00 0.00 0.00 49 1014.0
20260509181657 68 94 1.7 11.3 0.00 0.00 0.00 48 1014.0
20260509181157 68 46 1.7 6.1 0.00 0.00 0.00 47 1014.1
20260509180657 69 34 1.7 7.0 0.00 0.00 0.00 47 1014.0
20260509180158 69 53 2.6 7.0 0.00 0.00 0.00 46 1014.0
20260509175657 69 19 3.5 7.8 0.00 0.00 0.00 46 1014.0
20260509175158 70 25 1.7 8.7 0.00 0.00 0.00 45 1014.0
20260509174658 70 56 1.7 5.2 0.00 0.00 0.00 45 1014.0
20260509174158 70 72 2.6 5.2 0.00 0.00 0.00 45 1013.9
20260509173658 70 76 2.6 9.6 0.00 0.00 0.00 44 1013.9
20260509173158 71 72 2.6 7.0 0.00 0.00 0.00 45 1013.9
20260509172658 71 89 2.6 9.6 0.00 0.00 0.00 44 1013.8
20260509172158 71 76 2.6 10.4 0.00 0.00 0.00 43 1013.8
20260509171658 72 67 1.7 6.1 0.00 0.00 0.00 43 1013.8
20260509171158 72 63 0.9 4.3 0.00 0.00 0.00 43 1013.7
20260509170658 71 63 0.9 6.1 0.00 0.00 0.00 43 1013.7
20260509170158 72 70 0.9 7.0 0.00 0.00 0.00 43 1013.7
20260509165658 72 69 1.7 4.3 0.00 0.00 0.00 42 1013.7
20260509165158 72 70 1.7 5.2 0.00 0.00 0.00 40 1013.7
20260509164658 72 66 2.6 5.2 0.00 0.00 0.00 40 1013.7
20260509164158 72 65 2.6 6.1 0.00 0.00 0.00 39 1013.8
20260509163658 73 61 1.7 7.0 0.00 0.00 0.00 38 1013.8
20260509163158 73 58 1.7 6.1 0.00 0.00 0.00 38 1013.9
20260509162658 74 60 0.9 7.0 0.00 0.00 0.00 38 1013.9
20260509162158 74 60 0.9 3.5 0.00 0.00 0.00 38 1013.9
20260509161658 74 60 0.9 3.5 0.00 0.00 0.00 37 1013.8
20260509161158 74 56 0.9 2.6 0.00 0.00 0.00 37 1013.9
20260509160658 74 56 0.9 4.3 0.00 0.00 0.00 36 1013.9
20260509160158 73 56 0.9 3.5 0.00 0.00 0.00 37 1014.0
20260509155658 73 56 0.9 5.2 0.00 0.00 0.00 37 1014.0
20260509155158 73 55 0.9 3.5 0.00 0.00 0.00 38 1014.0
20260509154658 73 55 0.9 5.2 0.00 0.00 0.00 39 1014.0
20260509154202 72 41 0.9 5.2 0.00 0.00 0.00 40 1014.0
20260509153658 72 18 0.9 6.1 0.00 0.00 0.00 40 1014.0
20260509153158 72 96 0.9 2.6 0.00 0.00 0.00 41 1014.0
20260509152658 72 96 0.9 5.2 0.00 0.00 0.00 40 1014.0
20260509152158 72 159 0.9 4.3 0.00 0.00 0.00 40 1014.0
20260509151658 71 173 0.9 2.6 0.00 0.00 0.00 39 1014.0
20260509151158 71 178 0.9 5.2 0.00 0.00 0.00 41 1013.9
20260509150658 72 179 0.9 6.1 0.00 0.00 0.00 40 1013.9
20260509150158 73 84 0.9 4.3 0.00 0.00 0.00 40 1014.0
20260509145658 74 67 1.7 5.2 0.00 0.00 0.00 37 1014.0
20260509145158 73 65 1.7 8.7 0.00 0.00 0.00 38 1014.0
20260509144658 73 76 0.9 3.5 0.00 0.00 0.00 39 1014.0
20260509144158 73 75 0.0 4.3 0.00 0.00 0.00 40 1014.1
20260509143658 72 70 0.9 3.5 0.00 0.00 0.00 41 1014.2
20260509143158 72 66 0.9 5.2 0.00 0.00 0.00 41 1014.3
20260509142658 71 58 1.7 4.3 0.00 0.00 0.00 41 1014.3
20260509142158 72 60 0.9 4.3 0.00 0.00 0.00 39 1014.3
20260509141658 73 68 0.9 3.5 0.00 0.00 0.00 39 1014.4
20260509141158 73 65 1.7 4.3 0.00 0.00 0.00 39 1014.4
20260509140658 73 68 0.9 6.1 0.00 0.00 0.00 40 1014.3
20260509140158 72 94 0.0 1.7 0.00 0.00 0.00 40 1014.4
20260509135658 72 94 0.9 3.5 0.00 0.00 0.00 41 1014.5
20260509135200 73 94 0.9 4.3 0.00 0.00 0.00 39 1014.5
20260509134658 73 72 0.9 4.3 0.00 0.00 0.00 38 1014.5
20260509134158 73 70 0.9 4.3 0.00 0.00 0.00 38 1014.5
20260509133658 72 75 1.7 5.2 0.00 0.00 0.00 40 1014.6
20260509133158 72 73 1.7 7.8 0.00 0.00 0.00 40 1014.6
20260509132658 73 82 0.9 6.1 0.00 0.00 0.00 40 1014.6
20260509132158 73 64 0.9 3.5 0.00 0.00 0.00 40 1014.6
20260509131658 74 63 1.7 6.1 0.00 0.00 0.00 39 1014.7
20260509131158 74 66 0.9 7.8 0.00 0.00 0.00 39 1014.7
20260509130658 74 82 1.7 3.5 0.00 0.00 0.00 39 1014.7
20260509130158 74 70 1.7 10.4 0.00 0.00 0.00 40 1014.8
20260509125658 74 86 0.9 4.3 0.00 0.00 0.00 42 1014.8
20260509125158 73 110 0.9 6.1 0.00 0.00 0.00 42 1014.9
20260509124658 73 121 0.9 6.1 0.00 0.00 0.00 41 1015.0
20260509124158 72 99 1.7 4.3 0.00 0.00 0.00 42 1015.1
20260509123658 72 66 1.7 7.8 0.00 0.00 0.00 41 1015.2
20260509123158 73 175 1.7 7.0 0.00 0.00 0.00 41 1015.2
20260509122658 73 47 1.7 8.7 0.00 0.00 0.00 41 1015.3
20260509122158 73 82 0.9 7.0 0.00 0.00 0.00 42 1015.3
20260509121658 72 44 1.7 7.0 0.00 0.00 0.00 43 1015.3
20260509121158 72 174 1.7 7.0 0.00 0.00 0.00 43 1015.3
20260509120658 72 65 1.7 6.1 0.00 0.00 0.00 42 1015.3
20260509120158 72 76 1.7 6.1 0.00 0.00 0.00 42 1015.5
20260509115658 72 64 1.7 6.1 0.00 0.00 0.00 43 1015.5
20260509115158 72 74 1.7 8.7 0.00 0.00 0.00 43 1015.5
20260509114658 72 76 2.6 7.0 0.00 0.00 0.00 44 1015.5
20260509114158 72 69 1.7 6.1 0.00 0.00 0.00 43 1015.6
20260509113658 71 71 0.9 4.3 0.00 0.00 0.00 45 1015.7
20260509113158 70 69 1.7 3.5 0.00 0.00 0.00 45 1015.8
20260509112658 70 60 2.6 6.1 0.00 0.00 0.00 43 1015.9
20260509112158 71 52 1.7 7.0 0.00 0.00 0.00 42 1015.9
20260509111658 72 66 1.7 6.1 0.00 0.00 0.00 44 1015.9
20260509111158 72 123 1.7 7.0 0.00 0.00 0.00 43 1016.0
20260509110658 72 13 0.9 7.0 0.00 0.00 0.00 44 1016.0
20260509110158 72 135 0.9 4.3 0.00 0.00 0.00 44 1016.1
20260509105658 72 137 0.9 5.2 0.00 0.00 0.00 44 1016.1
20260509105158 71 115 0.9 3.5 0.00 0.00 0.00 43 1016.1
20260509104658 71 119 0.9 4.3 0.00 0.00 0.00 44 1016.2
20260509104158 71 89 0.9 4.3 0.00 0.00 0.00 44 1016.1
20260509103658 71 51 1.7 7.0 0.00 0.00 0.00 44 1016.1
20260509103158 71 76 1.7 6.1 0.00 0.00 0.00 44 1016.1
20260509102658 71 65 1.7 5.2 0.00 0.00 0.00 44 1016.3
20260509102158 71 157 1.7 7.0 0.00 0.00 0.00 45 1016.3
20260509101658 71 133 1.7 6.1 0.00 0.00 0.00 45 1016.3
20260509101158 70 76 1.7 7.0 0.00 0.00 0.00 46 1016.3
20260509100658 70 89 1.7 6.1 0.00 0.00 0.00 47 1016.3
20260509100158 70 56 1.7 7.0 0.00 0.00 0.00 45 1016.3
20260509095658 70 67 0.9 6.1 0.00 0.00 0.00 47 1016.4
20260509095158 69 140 0.9 5.2 0.00 0.00 0.00 47 1016.4
20260509094658 69 144 1.7 6.1 0.00 0.00 0.00 47 1016.4
20260509094158 69 139 1.7 4.3 0.00 0.00 0.00 47 1016.4
20260509093658 69 176 1.7 6.1 0.00 0.00 0.00 47 1016.4
20260509093158 69 157 0.9 7.0 0.00 0.00 0.00 46 1016.4
20260509092658 69 122 0.9 3.5 0.00 0.00 0.00 47 1016.4
20260509092158 69 118 0.9 5.2 0.00 0.00 0.00 47 1016.5
20260509091658 69 105 0.9 4.3 0.00 0.00 0.00 47 1016.5
20260509091158 69 94 0.9 7.0 0.00 0.00 0.00 47 1016.5
20260509090658 68 154 0.9 4.3 0.00 0.00 0.00 48 1016.6
20260509090158 68 147 0.9 3.5 0.00 0.00 0.00 49 1016.5
20260509085658 67 150 1.7 4.3 0.00 0.00 0.00 49 1016.5
20260509085158 67 149 1.7 6.1 0.00 0.00 0.00 48 1016.6
20260509084658 68 22 0.9 6.1 0.00 0.00 0.00 49 1016.6
20260509084158 68 27 1.7 6.1 0.00 0.00 0.00 48 1016.5
20260509083658 68 160 0.9 6.1 0.00 0.00 0.00 50 1016.5
20260509083158 67 107 0.9 5.2 0.00 0.00 0.00 51 1016.5
20260509082658 67 79 1.7 7.0 0.00 0.00 0.00 54 1016.5
20260509082158 67 153 1.7 4.3 0.00 0.00 0.00 52 1016.5
20260509081658 66 154 1.7 5.2 0.00 0.00 0.00 51 1016.5
20260509081158 66 148 0.9 1.7 0.00 0.00 0.00 55 1016.6
20260509080658 65 148 1.7 5.2 0.00 0.00 0.00 54 1016.6
20260509080158 65 146 1.7 4.3 0.00 0.00 0.00 55 1016.6
20260509075658 65 146 0.9 3.5 0.00 0.00 0.00 55 1016.7
20260509075158 64 146 0.9 5.2 0.00 0.00 0.00 56 1016.7
20260509074658 64 143 0.9 5.2 0.00 0.00 0.00 56 1016.7
20260509074158 64 141 0.9 3.5 0.00 0.00 0.00 56 1016.8
20260509073658 63 141 0.9 4.3 0.00 0.00 0.00 58 1016.8
20260509073158 63 141 0.9 3.5 0.00 0.00 0.00 59 1016.9
20260509072658 63 141 0.0 2.6 0.00 0.00 0.00 58 1016.8
20260509072158 63 140 0.0 0.0 0.00 0.00 0.00 59 1016.8
20260509071658 63 140 0.9 4.3 0.00 0.00 0.00 58 1016.8
20260509071158 62 142 0.0 1.7 0.00 0.00 0.00 60 1016.8
20260509070658 62 142 0.0 1.7 0.00 0.00 0.00 61 1016.8
20260509070158 61 142 0.0 2.6 0.00 0.00 0.00 62 1016.8
20260509065658 61 142 0.0 1.7 0.00 0.00 0.00 62 1016.8
20260509065158 60 142 0.9 3.5 0.00 0.00 0.00 63 1016.7
20260509064658 60 142 0.9 3.5 0.00 0.00 0.00 62 1016.8